Weather in Sovetskiy

Russia / Saint-Petersburg and Leningrad Oblast     60°31′52″N   28°40′05″E
temp.,
°C
wind,
m/s
gust,
m/s
humid.,
%
clouds,
%
prec.,
mm/h
press.,
hPa
HPBL,
m
13 may, thu
thu1300:00+15se35710 0.0 101859
03:00+13ese22730 0.0 101722
06:00+13e35775 0.0 101590
09:00+18se58575 0.0 1015332
12:00+17se586211 0.0 1014485
15:00+19sse585769 0.1 1013771
18:00+19se57445 0.0 10121017
21:00+14sse34581 0.0 101146
14 may, fri
fri1400:00+12e116426 0.0 101010
03:00+11ne3370100 0.0 100933
06:00+10ssw4891100 0.2 1009202
09:00+10sse2595100 3.6 1009257
12:00+12ssw467344 0.8 1010786
15:00+14ssw4761100 0.8 10101148
18:00+14sse596571 0.0 1009433
21:00+13se4876100 0.0 1009219
15 may, sat
sat1500:00+12se478667 0.1 1008151
03:00+12se368499 0.1 1007114
06:00+11ese36885 0.0 1006117
09:00+15ese3567100 0.0 1006331
12:00+16ese346194 0.0 1005512
15:00+19wnw0252100 0.0 10041349
18:00+13wsw3477100 0.2 100457
21:00+10wsw5889100 0.2 1004180
16 may, sun
sun1600:00+9w5118296 0.0 1005226
03:00+8w38875 0.0 1007157
06:00+7wsw499313 0.0 1008218
09:00+9wsw588535 0.0 1010356
12:00+11sw477559 0.0 1011467
15:00+11wsw3672100 0.0 1012529
18:00+12wsw257135 0.0 1011491
21:00+11sse118235 0.0 101213
17 may, mon
mon1700:00+11ese3580100 0.0 101254
03:00+10ese488536 0.0 1012110
06:00+12ese4107878 0.0 1011191
09:00+16se510605 0.0 1011379
12:00+19sse695488 0.0 1010837
15:00+21sse694680 0.0 10081387
18:00+21se61151100 0.0 10061217
21:00+14s51283100 1.2 1006376